Regional Weather Roundup
Issued by NWS

Home | Current Version | Previous Version | Graphics & Text | Print | Product List | Glossary On
Versions: 1 2 3 4 5 6 7 8 9 10 11 12 13 14 15 16 17 18 19 20 21 22 23 24 25 26 27 28 29 30 31 32 33 34 35 36 37 38 39 40 41 42 43 44 45 46 47 48 49 50
000
ASUS43 KLOT 290903
RWRIL

ILLINOIS REGIONAL WEATHER ROUNDUP
NATIONAL WEATHER SERVICE CHICAGO/ROMEOVILLE IL
400 AM CDT THU JUN 29 2017

NOTE: "FAIR" INDICATES FEW OR NO CLOUDS BELOW 12,000 FEET WITH NO
SIGNIFICANT WEATHER AND/OR OBSTRUCTIONS TO VISIBILITY.

* THESE STATIONS ARE NOT UNDER NWS QUALITY CONTROL. THEY ALSO MAY NOT
  REPORT WEATHER SUCH AS PRECIPITATION OR FOG.

ILZ001-002-007-009-015-016-024-291000-
NORTHWEST ILLINOIS

CITY           SKY/WX    TMP DP  RH WIND       PRES   REMARKS
MOLINE         CLOUDY    71  60  68 SW10      29.73S
STERLING*      CLOUDY    72  61  68 W12       29.73R
SAVANNA*       CLOUDY    73  63  71 SW13G18   29.72R
$$

ILZ003-004-008-010-011-017-018-291000-
NORTH CENTRAL ILLINOIS

CITY           SKY/WX    TMP DP  RH WIND       PRES   REMARKS
ROCKFORD       CLOUDY    72  64  76 SW5       29.73R
FREEPORT*      MOCLDY    71  64  78 W12       29.74R
ROCHELLE*      MOCLDY    70  60  71 SW10      29.73S
DE KALB*       CLOUDY    68  64  85 SW7       29.73F
PERU*          CLOUDY    70  60  70 W8        29.75R
$$

ILZ005-006-012>014-019>023-291000-
NORTHEAST ILLINOIS

CITY           SKY/WX    TMP DP  RH WIND       PRES   REMARKS
CHICAGO-OHARE  CLOUDY    68  64  87 S9        29.72F
CHICAGO-MIDWAY CLOUDY    73  64  73 S8        29.73F
AURORA         CLOUDY    71  64  78 S5        29.74S
LANSING*       MOCLDY    74  62  66 SW10      29.77F
JOLIET*        CLOUDY    75  66  72 CALM      29.75F
WAUKEGAN       CLOUDY    63  63 100 S6        29.69F
DUPAGE AIRPORT CLOUDY    69  66  90 S8        29.73S
WHEELING       CLOUDY    67  66  97 S9        29.72F
MORRIS*        CLOUDY    71  64  76 S5        29.75R
ROMEOVILLE*    CLOUDY    71  62  73 SW6       29.75F
$$

LMZ740>746-291000-
SOUTHERN LAKE MICHIGAN

STATION/POSITION SKY/WX   TEMP    WIND        PRES    VSBY  WAVE
                          AIR SEA DIR/SP/G                  HT/PER
                          (F)     (DEG/KT/KT) (MB)    (MI)  (FT/S)
SOUTHERN BUOY              63 60  130/ 14/ 14 1007.5          3/ 4
WILMETTE HARBOR            65 61  150/ 16/ 19   N/A           3/ 3
HARRISON CRIB              69     160/ 15/ 17   N/A
BURNHAM HARBOR             70                   N/A
CALUMET HARBOR             74     170/  6/ 11 1007.3F
BURNS HARBOR               74     180/ 11/ 16 1008.5F
MICHIGAN CITY              73     170/ 12/ 14   N/A
MICHIGAN CITY 6N           71 65  190/ 10/ 12   N/A           1/ 3
ST. JOSEPH                 68 67  170/ 12/ 16 1008.6F         2/ 3
$$

ILZ025>027-034>036-040-047-049-050-058-095>099-291000-
WEST-CENTRAL ILLINOIS

CITY           SKY/WX    TMP DP  RH WIND       PRES   REMARKS
QUINCY         LGT RAIN  67  63  87 S21G30    29.83F
GALESBURG*     CLOUDY    67  61  79 W12G17    29.79R
MACOMB*        CLOUDY    67  61  80 NW17G25   29.79R
JACKSONVILLE*  LGT RAIN  69  60  74 S10       29.86F
PITTSFIELD*    LGT RAIN  68  64  88 SW8       29.92R
$$

ILZ028>032-037-038-041>044-048-051>054-059>061-291000-
CENTRAL ILLINOIS

CITY           SKY/WX    TMP DP  RH WIND       PRES   REMARKS
PONTIAC        CLOUDY    75  67  75 S20       29.75R
BLOOMINGTON    MOCLDY    73  61  65 S23G30    29.75F
DECATUR        CLOUDY    74  64  71 SW16G25   29.87F
PEORIA         MOCLDY    69  62  78 W6        29.76R
LACON*         CLOUDY    71  63  77 SW8       29.75R
LINCOLN*       CLOUDY    75  61  60 S13       29.79F
SPRINGFIELD    PTCLDY    75  60  59 S16       29.84F
TAYLORVILLE    MOCLDY    72  65  78 S9        29.89F
$$

ILZ033-039-045-046-055>057-062-063-291000-
EAST-CENTRAL ILLINOIS

CITY           SKY/WX    TMP DP  RH WIND       PRES   REMARKS
CHAMPAIGN      CLOUDY    74  63  68 S15G24    29.88F
RANTOUL*       CLOUDY    77  66  68 SW21G30   29.84F
MATTOON        MOCLDY    72  66  81 S12       29.91F
PARIS*         CLOUDY    72  65  77 SW15G21   29.92F
$$

ILZ079-100>102-291000-
SOUTHWEST ILLINOIS

CITY           SKY/WX    TMP DP  RH WIND       PRES   REMARKS
ALTON          CLOUDY    73  67  84 SW6       29.96S
BELLEVILLE     CLOUDY    70  65  85 S5        29.96S
CAHOKIA*       CLOUDY    75  65  70 W5G18     29.95R
SPARTA*        MOCLDY    71  64  80 S5        29.97F
$$

ILZ064>066-069>071-074>076-080>082-084>086-088>090-092>094-291000-
SOUTH-CENTRAL ILLINOIS

CITY           SKY/WX    TMP DP  RH WIND       PRES   REMARKS
CARBONDALE     CLOUDY    68  66  93 S5        29.97S
CAIRO*         CLEAR     73  66  78 S7        29.97S
EFFINGHAM*     CLOUDY    72  65  80 S8        29.96F
MARION         PTCLDY    70  70 100 CALM      29.99S
MT. VERNON     CLOUDY    68  65  90 CALM      29.97S
CENTRALIA*     CLOUDY    72  66  82 S6        29.96S
SALEM*         CLOUDY    74  65  73 S8        29.96S
METROPOLIS*    CLEAR     72  65  80 CALM      29.99S
$$

ILZ067-068-072-073-078-083-087-091-291000-
SOUTHEAST ILLINOIS

CITY           SKY/WX    TMP DP  RH WIND       PRES   REMARKS
LAWRENCEVILLE  CLOUDY    68  65  90 S5        29.97S
FLORA*         CLOUDY    71  65  83 S7        29.97S
FAIRFIELD*     CLOUDY    69  66  89 CALM      29.97R
HARRISBURG*    PTCLDY    70  65  85 CALM      29.99R
ROBINSON*      CLOUDY    69  64  82 S7        29.96S
CARMI*         CLOUDY    68  65  91 S6        29.97S
$$

ABBREVIATIONS USED IN REMARKS
   TC - TEMPERATURE IN CELSIUS
  WCI - WIND CHILL INDEX
   HX - HEAT INDEX
  VSB - VISIBILITY
$$




USA.gov is the U.S. government's official web portal to all federal, state and local government web resources and services.